Regional Weather Roundup
Issued by NWS Wakefield, VA

Home | Current Version | Previous Version | Text Only | Print | Product List | Glossary On
Versions: 1 2 3 4 5 6 7 8 9 10 11 12 13 14 15 16 17 18 19 20 21 22 23 24 25 26 27 28 29 30 31 32 33 34 35 36 37 38 39 40 41 42 43 44 45 46 47 48 49 50
000
ASUS41 KAKQ 272114
RWRAKQ

REGIONAL WEATHER ROUNDUP
NATIONAL WEATHER SERVICE WAKEFIELD VA
400 PM EST MON FEB 27 2017

Note: "fair" indicates few or no clouds below 12,000 feet with no
significant weather and/or obstructions to visibility. * = Denotes
station may not report precipitation (e.g., rain,snow,etc.),
thunder or fog.

VAZ042-051-052>054-056-272200-
NORTHERN VIRGINIA

CITY           SKY/WX    TMP DP  RH WIND       PRES   REMARKS
WASH NATIONAL  CLOUDY    55  28  35 S3        30.40R
DULLES         CLOUDY    54  22  28 S3        30.38R
FORT BELVOIR   CLOUDY    55  25  30 S5        30.39R
QUANTICO       CLOUDY    53  37  54 S6        30.40R
FREDERICKSBRG* MOSUNNY   57  29  34 S6        30.38R
STAFFORD*      CLOUDY    56  25  30 CALM      30.43R
WARRENTON      CLOUDY    57  15  19 W3        30.38R
CULPEPER*      CLOUDY    56  25  30 W5        30.39R
MANASSAS*      CLOUDY    56  22  26 S9        30.39R
LEESBURG*      CLOUDY    54  30  40 MISG      30.38S
WINCHESTER     CLOUDY    50  23  34 S6        30.35S
FRONT ROYAL*   CLOUDY    52  25  35 CALM      30.34R
LURAY*         CLOUDY    54  27  35 S8        30.34S
$$

VAZ048-049-060>072-079>083-272200-
CENTRAL AND SOUTH CENTRAL VIRGINIA

CITY           SKY/WX    TMP DP  RH WIND       PRES   REMARKS
RICHMOND       CLOUDY    60  25  26 SW8       30.38S
CHESTERFIELD*  MOCLDY    61  21  21 SW5       30.38F
PETERSBURG*    CLOUDY    60  19  20 S7        30.38S
HANOVER        CLOUDY    59  23  25 S6        30.39S
TAPPAHANNOCK*  CLOUDY    60  12  15 S3        30.39F
QUINTON*       FAIR      60  27  28 CALM      30.38S
CHARLOTTSVILLE CLOUDY    58  23  26 SW7       30.35S
GORDONSVILLE*  CLOUDY    57  24  28 S3        30.36R
ORANGE*        CLOUDY    55  25  30 CALM      30.39R
LOUISA*        CLOUDY    61  28  29 CALM      30.36R
BUMPASS*       CLOUDY    57  23  27 S9G16     30.38R
FARMVILLE*     PTSUNNY   60  26  26 S3        30.34F
CREWE*         FAIR      60  28  29 CALM      30.36S
FORT PICKETT*  NOT AVBL
CHASE CITY*    FAIR      60  20  20 S3        30.35F
CLARKSVILLE*   FAIR      61  27  27 S7        30.35F
SOUTH HILL*    CLOUDY    60  25  26 S7        30.42S
LAWRENCEVILLE* FAIR      61  23  24 S7        30.37S
EMPORIA*       CLOUDY    61  23  23 S6        30.39F
$$

VAZ088>098-272200-
SOUTHEAST VIRGINIA

CITY           SKY/WX    TMP DP  RH WIND       PRES   REMARKS
NORFOLK        CLOUDY    64  17  16 SW14      30.37S
VIRGINIA BEACH CLOUDY    55  33  43 SE8       30.38S
NORFOLK NAVAL  CLOUDY    63  17  17 S8        30.39S
WEST POINT*    MOSUNNY   60  28  29 SE3       30.40F
SALUDA*        FAIR      58  29  33 S5        30.40R
NEWPORT NEWS   MOSUNNY   62  26  25 SW10      30.39R
LANGLEY AFB    CLOUDY    58  35  42 E6        30.39R
FORT EUSTIS    PTSUNNY   62  33  32 S5        30.36R
WILLIAMSBURG*    N/A    N/A N/A N/A MISG      30.38S
HR EXEC AP*    FAIR      63  21  20 SW6       30.37R
FRANKLIN*      CLOUDY    63  23  21 S5        30.39R
US460-WAKEFLD  MOSUNNY   62  24  23 S6        30.38S
$$

VAZ020-022-025-037-045-272200-
WEST CENTRAL AND SOUTHWEST VIRGINIA

CITY           SKY/WX    TMP DP  RH WIND       PRES   REMARKS
STAUNTON*      CLOUDY    52  24  33 CALM      30.36R
WAYNESBORO*    CLOUDY    52  20  28 S8        30.34S
HOT SPRINGS VA CLOUDY    41  16  36 CALM      30.29F
LYNCHBURG      CLOUDY    58  24  27 S10       30.34S
DANVILLE       CLOUDY    61  24  24 VRB6G16   30.33F
SOUTH BOSTON*  FAIR      61  19  19 S6        30.34F
MARTINSVILLE   MOSUNNY   58  27  30 S3        30.35S
ROANOKE        CLOUDY    57  26  30 SE6       30.32F
BLACKSBURG     CLOUDY    54  26  33 S8        30.32S
DUBLIN*        CLOUDY    55  26  32 S13       30.31R
MARION*        CLOUDY    53  19  26 SE6       30.28S
HILLSVILLE*    PTSUNNY   49  27  42 S6        30.26F
RICHLANDS*     CLOUDY    53  29  39 CALM      30.23S
WISE*          CLOUDY    52  27  37 SW8       30.23S
ABINGDON*      CLOUDY    58  24  26 SW12      30.23S
$$

MDZ021>025-VAZ099-100-272200-
SOUTHERN MARYLAND AND THE DELMARVA PENINSULA

CITY           SKY/WX    TMP DP  RH WIND       PRES   REMARKS
PATUXENT RIVER CLOUDY    54  35  48 S3        30.41R
BAY BRIDGE APT CLOUDY    52  36  54 S8        30.41R
LEONARDTOWN    CLOUDY    54  34  47 SE5       30.42R
DOVER          CLOUDY    53  35  51 S10       30.39R
GEORGETOWN     CLOUDY    57  23  26 SW10      30.41R
EASTON         CLOUDY    54  36  50 SW9       30.44R
CAMBRIDGE      SUNNY     54  32  43 S6        30.42R
SALISBURY      MOSUNNY   56  28  34 S12       30.41R
OCEAN CITY     CLOUDY    50  36  58 VRB7      30.41S
WALLOPS ISLAND CLOUDY    52  32  46 S8        30.43R
ACCOMACK*      CLOUDY    56  29  36 S3        30.41R
$$

NCZ012>017-030>032-272200-
NORTH CENTRAL AND EASTERN NORTH CAROLINA

CITY           SKY/WX    TMP DP  RH WIND       PRES   REMARKS
ROANOKE RAPIDS FAIR      63  27  25 S8        30.37F
RALEIGH        PTSUNNY   64  19  17 SW9       30.37F
ELIZABETH CITY MOSUNNY   62  41  46 E8        30.39F
AHOSKIE*         N/A     64  26  23 S8        30.38R
EDENTON*       MOSUNNY   67  45  46 S13       30.39R
CURRITUCK*     MOSUNNY   64  35  34 S3        30.39F
KILL DEVIL HLS NOT AVBL
MANTEO         MOSUNNY   61  42  50 E6        30.40F
CAPE HATTERAS  PTSUNNY   68  50  52 SE14      30.38F
TARBORO*       NOT AVBL
GOLDSBORO      PTSUNNY   68  39  34 S5        30.35F
WASHINGTON     PTSUNNY   66  41  40 S6        30.39R
GREENVILLE     SUNNY     68  37  32 SW10      30.38S
NEW BERN       MOSUNNY   66  44  45 E8        30.39S
WILMINGTON     CLOUDY    65  49  56 E6        30.37S
$$

VAZ048-272200-
ELSEWHERE

CITY           SKY/WX    TMP DP  RH WIND       PRES   REMARKS
HARRISBURG PA  CLOUDY    50  33  52 NW3       30.37R
BALTIMORE      CLOUDY    53  22  29 SW5       30.38R
ANNAPOLIS      CLOUDY    51  35  54 S9        30.40R
ANDREWS AFB    CLOUDY    53  24  32 S8        30.38R
PHILADELPHIA   CLOUDY    54  29  38 SW9       30.39R
HENDERSON NC   MOSUNNY   59  20  22 S9        30.35F
GREENSBORO     CLOUDY    60  26  27 S13       30.32F
ROCKY MOUNT    SUNNY     66  29  24 S8        30.37F
$$

VAZ100-272200-
MARINE

STATION/POSITION TIME  TEMP    WIND        PRES    WAVE   SWELL
                       AIR SEA DIR/SP/G            HT/PER HT/PER
                 (UTC) (F)     (DEG/KT/KT) (MB)    (FT/S) (FT/S)
CAPE MAY NJ      2048   49 45  180/ 10/ 14 1029.3R
LEWES DE         2048   54 44  190/  7/ 10 1029.6R
OCEAN-CITY-INLET 2048   47 47  180/ 12/ 15 1030.1F
WACHAPREAGUE VA  2048   53 54  180/  6/  7 1030.0R
THOMAS POINT MD  2100   47 45  170/ 15/ 16   N/A
GOOSES REEF MD   2100   46 45  160/  8/  8 1030.5    1/ 2
COVE POINT MD    2048   48     180/  7/  8 1030.5R
SOLOMONS ISLAND  2048   52 46   90/  4/  5   N/A
BISHOPS HEAD MD  2048   51 49  170/  7/  9 1030.2R
PINEY POINT MD   2048          150/  6/  6   N/A
POTOMAC MD       2100   51 45  170/  6/  8 1028.9    1/ 2
CAMBRIDGE MD     2048   54 47  200/  5/  9 1029.3R
LEWISETTA VA     2048   53 48  130/  9/ 10 1029.1R
RAPPAHANNOCK LGT 2048          130/  2/  3 1030.1R
YORK RVR RNG VA  2048   50     130/ 11/ 11 1028.5R
YORKTOWN VA      2048   55 50  100/  7/  7 1028.8R
JAMESTOWN VA     2100   61 54  190/  8/ 12   N/A     0
DOMINION TERM VA 2048   59     240/  8/  9 1028.9R
KIPTOPEKE VA     2048      50  150/  8/ 12   N/A
CHES BAY BRIDGE  2048   53 50  110/  5/  8 1028.7S
CAPE HENRY VA    2048   52     140/ 10/ 12   N/A
WILLOUBY STN VA  2048   62     200/ 10/ 12 1029.6R
S CRANEY ISL VA  2048   61     220/  6/  9 1028.4F
CAPE HENRY BUOY  2042      50                N/A     2/ 8
OFFSHORE WE BUOY 2051      50                N/A     2/ 8
64NM E OF VA BCH 2050   52 51   60/  4/  4 1029.7R   2/ 8   2/ 8
DUCK PIER NC     2048   54 50  130/  7/  8 1028.7F
44100 DUCK FRF   2035      51                N/A     2/ 8
44056 DUCK FRF   2030      51                N/A     2/ 8
OREGON INLET NC  2048           40/  5/  6   N/A
HATTERAS NC      2048   65 61  140/ 10/ 12 1028.3F
DIAMOND SHLS NC  2050   65 71  140/ 14/ 17 1029.3F   3/ 8   3/ 8
CAPE LOOKOUT NC  2100   60      30/  9/ 11 1028.3F
$$



USA.gov is the U.S. government's official web portal to all federal, state and local government web resources and services.